Le nostre stazioni meteo in Italia

Pubblicità
Il mio iltempo24.it
Lulea/Kallax, Svezia (2186): Temperatura & dewpoint: 12.03.2019 20:00:00 - 18.03.2019 20:00:00 (CET)Lulea/Kallax, Svezia (2186): velocità del vento & gusts: 12.03.2019 20:00:00 - 18.03.2019 20:00:00 (CET)Lulea/Kallax, Svezia (2186): direzione del vento: 12.03.2019 20:00:00 - 18.03.2019 20:00:00 (CET)Lulea/Kallax, Svezia (2186): reduced air pressure: 12.03.2019 20:00:00 - 18.03.2019 20:00:00 (CET)Lulea/Kallax, Svezia (2186): visibility: 12.03.2019 20:00:00 - 18.03.2019 20:00:00 (CET)Lulea/Kallax, Svezia (2186): precipitazioni: 12.03.2019 20:00:00 - 18.03.2019 20:00:00 (CET)
Data & Tempo tt [°C] td [°C] ff [km/h] ff [kn] fx [km/h] fx [kn] dd ppp [hPa] vv [km] rr [mm]
18.03.2019 20:00:00 - - - - - - - - - -
18.03.2019 19:00:00 -1,2 -1,8 18 10 25 14 NNO 1000,3 1,7 0,7
18.03.2019 18:00:00 -0,9 -1,2 15 8 25 14 NNO 999,6 1,9 0,5
18.03.2019 17:00:00 -0,6 -0,9 13 7 22 12 NO 998,7 1,9 0,3
18.03.2019 16:00:00 -0,3 -0,6 13 7 18 10 NO 997,7 3,0 0,0
18.03.2019 15:00:00 -0,1 -0,4 9 5 18 10 NNO 996,9 8 0,0
18.03.2019 14:00:00 0,2 -0,1 9 5 14 8 NNO 996,4 8 0,0
18.03.2019 13:00:00 0,3 0,0 8 4 14 8 NNO 995,9 4,5 0,0
18.03.2019 12:00:00 0,3 0,0 4 2 7 4 - 995,2 0,4 0,0
18.03.2019 11:00:00 0,5 0,2 0 0 7 4 N 994,6 0,4 0,0
18.03.2019 10:00:00 0,4 0,1 0 0 7 4 N 993,9 0,4 0,0
18.03.2019 09:00:00 0,4 0,1 2 1 7 4 E 993,4 3,0 0,0
18.03.2019 08:00:00 0,4 0,1 4 2 14 8 - 992,7 3,0 0,1
18.03.2019 07:00:00 0,2 -0,1 8 4 18 10 E 992,5 10 0,3
18.03.2019 06:00:00 0,1 -0,2 7 4 22 12 E 992,3 1,3 1,0
18.03.2019 05:00:00 0,0 -0,3 15 8 25 14 ENE 992,3 0,6 1,0
18.03.2019 04:00:00 -0,1 -0,4 13 7 25 14 ENE 992,7 0,5 2,0
18.03.2019 03:00:00 0,0 -0,1 15 8 25 14 ENE 993,1 1,0 0,7
18.03.2019 02:00:00 -0,4 -0,7 11 6 22 12 ENE 993,8 3,0 0,4
18.03.2019 01:00:00 -1,3 -1,7 11 6 22 12 NNE 994,6 2,0 1,0
18.03.2019 00:00:00 -1,8 -2,2 13 7 22 12 NNE 995,3 1,5 0,7
17.03.2019 23:00:00 -1,9 -2,3 9 5 22 12 NE 996,2 5 0,2
17.03.2019 22:00:00 -2,1 -2,5 11 6 22 12 NNE 996,8 8 0,1
17.03.2019 21:00:00 -2,3 -2,7 11 6 22 12 NNE 997,2 7 0,2
17.03.2019 20:00:00 -2,5 -2,9 11 6 18 10 NNE 998,0 5 0,0
17.03.2019 19:00:00 -2,7 -3,1 11 6 22 12 N 998,1 10 0,0
17.03.2019 18:00:00 -3,0 -3,5 9 5 18 10 N 998,6 10 0,0
17.03.2019 17:00:00 -2,9 -3,4 11 6 18 10 N 998,8 4,2 0,3
17.03.2019 16:00:00 -2,9 -3,4 11 6 18 10 NNE 998,7 2,5 0,2
17.03.2019 15:00:00 -2,7 -3,2 9 5 22 12 NNE 998,9 4,8 0,0
17.03.2019 14:00:00 -2,7 -3,2 9 5 14 8 N 998,7 5 0,0
17.03.2019 13:00:00 -2,7 -3,2 9 5 22 12 N 998,7 7 0,0
17.03.2019 12:00:00 -2,8 -3,3 9 5 22 12 N 998,6 3,0 0,0
17.03.2019 11:00:00 -2,7 -3,2 9 5 22 12 N 998,7 4,2 0,0
17.03.2019 10:00:00 -2,8 -3,3 9 5 22 12 N 998,6 3,0 0,3
17.03.2019 09:00:00 -2,9 -3,4 11 6 22 12 N 998,3 1,1 0,8
17.03.2019 08:00:00 -3,0 -3,5 9 5 18 10 N 997,8 1,5 0,4
17.03.2019 07:00:00 -2,9 -3,4 9 5 18 10 N 997,6 2,7 0,2
17.03.2019 06:00:00 -2,8 -3,2 9 5 18 10 N 997,3 9 0,0
17.03.2019 05:00:00 -2,5 -2,9 11 6 18 10 N 997,1 3,5 0,1
17.03.2019 04:00:00 -2,1 -2,5 9 5 18 10 N 997,1 5 0,1
17.03.2019 03:00:00 -1,6 -1,9 9 5 18 10 N 997,1 4,0 0,2
17.03.2019 02:00:00 -1,2 -1,5 9 5 22 12 N 997,0 2,3 0,5
17.03.2019 01:00:00 -1,0 -1,3 9 5 18 10 N 997,1 2,4 0,4
17.03.2019 00:00:00 -0,6 -0,9 8 4 14 8 N 996,9 1,8 0,7
16.03.2019 23:00:00 -0,5 -0,8 9 5 18 10 NNE 996,9 2,6 0,3
16.03.2019 22:00:00 -0,5 -0,8 8 4 18 10 NNE 996,9 3,1 0,4
16.03.2019 21:00:00 -0,4 -0,7 8 4 18 10 NNE 996,8 2,3 0,6
16.03.2019 20:00:00 -0,3 -0,6 8 4 18 10 NNE 996,8 1,5 1,0
16.03.2019 19:00:00 -0,3 -0,6 9 5 22 12 NNE 996,8 1,3 1,0
16.03.2019 18:00:00 -0,2 -0,5 9 5 22 12 NNE 996,7 1,4 1,0
16.03.2019 17:00:00 -0,2 -0,5 11 6 25 14 NNE 996,5 2,0 0,6
16.03.2019 16:00:00 -0,1 -0,5 9 5 18 10 NNE 996,5 2,5 0,7
16.03.2019 15:00:00 0,1 -0,5 9 5 18 10 NNE 996,6 2,5 0,5
16.03.2019 14:00:00 0,5 -1,4 8 4 18 10 NE 996,5 7 0,1
16.03.2019 13:00:00 0,9 -1,7 9 5 14 8 NNE 996,5 10 0,0
16.03.2019 12:00:00 0,9 -1,7 5 3 14 8 ENE 996,1 10 0,0
16.03.2019 11:00:00 1,1 -2,0 8 4 14 8 NE 995,9 10 0,0
16.03.2019 10:00:00 1,2 -1,7 4 2 11 6 - 995,5 10 0,0
16.03.2019 09:00:00 0,4 -1,2 4 2 7 4 N 995,2 10 0,0
16.03.2019 08:00:00 -0,7 -1,4 4 2 7 4 NNE 994,7 10 0,0
16.03.2019 07:00:00 -1,5 -1,9 0 0 7 4 N 994,2 10 0,0
16.03.2019 06:00:00 -1,5 -1,9 0 0 4 2 N 993,9 25 0,0
16.03.2019 05:00:00 -1,5 -2,2 2 1 11 6 - 993,4 10 0,0
16.03.2019 04:00:00 -1,3 -1,9 0 0 7 4 N 993,0 10 0,0
16.03.2019 03:00:00 -0,6 -1,6 2 1 7 4 - 992,8 10 0,0
16.03.2019 02:00:00 -0,4 -1,4 0 0 7 4 N 992,3 10 0,0
16.03.2019 01:00:00 -0,4 -0,8 0 0 7 4 N 992,0 10 0,0
16.03.2019 00:00:00 -0,3 -0,7 4 2 11 6 SSE 991,7 10 0,0
15.03.2019 23:00:00 -0,2 -0,6 4 2 11 6 SSO 991,6 10 0,0
15.03.2019 22:00:00 -0,2 -0,6 2 1 11 6 - 991,2 10 0,0
15.03.2019 21:00:00 -0,2 -0,6 5 3 14 8 S 990,7 10 0,0
15.03.2019 20:00:00 -0,1 -0,5 5 3 14 8 SSE 990,4 10 0,0
15.03.2019 19:00:00 -0,2 -0,5 5 3 14 8 SSE 990,2 8 0,0
15.03.2019 18:00:00 -0,1 -0,4 2 1 14 8 - 990,1 8 0,0
15.03.2019 17:00:00 0,0 -0,3 9 5 14 8 S 990,0 10 0,0
15.03.2019 16:00:00 0,2 -0,1 4 2 14 8 - 989,7 9 0,0
15.03.2019 15:00:00 0,3 0,0 9 5 14 8 S 989,7 8 0,0
15.03.2019 14:00:00 0,4 0,1 5 3 14 8 SSE 989,6 9 0,0
15.03.2019 13:00:00 0,3 0,0 8 4 14 8 S 989,7 2,6 0,0
15.03.2019 12:00:00 0,3 0,0 8 4 22 12 S 989,8 0,5 0,0
15.03.2019 11:00:00 0,2 -0,1 8 4 14 8 S 989,9 0,8 0,0
15.03.2019 10:00:00 0,1 -0,2 9 5 14 8 S 989,9 0,4 0,0
15.03.2019 09:00:00 0,1 -0,2 8 4 18 10 S 989,9 0,5 0,0
15.03.2019 08:00:00 0,0 -0,3 9 5 18 10 S 989,9 0,9 0,0
15.03.2019 07:00:00 0,0 -0,3 13 7 22 12 S 989,8 1,8 0,0
15.03.2019 06:00:00 0,1 -0,2 15 8 25 14 S 989,9 3,0 0,0
15.03.2019 05:00:00 0,0 -0,3 16 9 25 14 S 989,9 3,4 0,4
15.03.2019 04:00:00 -0,1 -0,4 18 10 32 18 SSE 990,0 1,0 0,7
15.03.2019 03:00:00 0,1 -0,3 22 12 36 19 SSE 990,3 2,3 0,4
15.03.2019 02:00:00 0,1 -0,3 28 15 40 21 SSE 990,3 1,6 0,5
15.03.2019 01:00:00 0,1 -0,3 31 17 43 23 SSE 990,6 1,9 0,2
15.03.2019 00:00:00 0,2 -0,2 31 17 40 21 SSE 990,8 3,5 0,3
14.03.2019 23:00:00 0,3 -0,3 31 17 47 25 SSE 991,0 9 0,0
14.03.2019 22:00:00 0,4 -0,2 31 17 47 25 SSE 991,3 9 0,0
14.03.2019 21:00:00 0,3 -0,1 31 17 47 25 SSE 991,4 9 0,0
14.03.2019 20:00:00 0,2 -0,2 29 16 43 23 SSE 991,4 5 0,2
14.03.2019 19:00:00 0,1 -0,3 29 16 40 21 SSE 991,3 6 0,1
14.03.2019 18:00:00 -0,6 -1,0 31 17 40 21 SSE 991,4 2,4 0,7
14.03.2019 17:00:00 -1,3 -1,7 31 17 40 21 SE 991,7 1,0 0,7
14.03.2019 16:00:00 -1,6 -2,0 22 12 32 18 SE 992,0 1,0 0,3
14.03.2019 15:00:00 -2,0 -2,4 16 9 25 14 SE 992,8 3,5 0,7
14.03.2019 14:00:00 -2,4 -3,0 22 12 32 18 SE 993,3 1,0 0,3
14.03.2019 13:00:00 -2,2 -3,8 26 14 36 19 SE 993,6 10 0,0
14.03.2019 12:00:00 -2,2 -3,6 26 14 36 19 SE 993,9 10 0,0
14.03.2019 11:00:00 -2,4 -3,7 28 15 32 18 SSE 994,4 10 0,0
14.03.2019 10:00:00 -2,8 -3,5 26 14 32 18 SSE 994,6 3,0 0,2
14.03.2019 09:00:00 -3,1 -3,8 26 14 32 18 SSE 994,7 3,0 0,5
14.03.2019 08:00:00 -3,2 -3,9 24 13 29 16 SE 995,2 1,5 0,3
14.03.2019 07:00:00 -3,3 -4,0 22 12 29 16 SSE 995,4 10 0,0
14.03.2019 06:00:00 -3,6 -4,3 22 12 32 18 SE 995,8 4,0 0,2
14.03.2019 05:00:00 -3,8 -4,6 22 12 32 18 SE 996,3 3,0 0,2
14.03.2019 04:00:00 -4,1 -4,9 22 12 29 16 SE 996,8 5 0,0
14.03.2019 03:00:00 -4,4 -5,4 16 9 25 14 SE 997,6 10 0,2
14.03.2019 02:00:00 -4,7 -5,9 18 10 25 14 SE 998,3 3,1 0,0
14.03.2019 01:00:00 -4,5 -7,0 22 12 25 14 SE 999,0 35 0,0
14.03.2019 00:00:00 -4,8 -7,6 18 10 25 14 SE 999,6 10 0,0
13.03.2019 23:00:00 -4,9 -7,7 13 7 18 10 SSE 1000,3 10 0,0
13.03.2019 22:00:00 -5,0 -8,2 18 10 22 12 SE 1000,8 10 0,0
13.03.2019 21:00:00 -4,8 -8,4 18 10 22 12 SSE 1001,3 10 0,0
13.03.2019 20:00:00 -4,5 -7,8 16 9 22 12 SE 1001,9 10 0,0
13.03.2019 19:00:00 -5,5 -8,2 15 8 22 12 SE 1002,6 10 0,0
13.03.2019 18:00:00 -5,2 -7,6 16 9 22 12 SE 1003,2 10 0,0
13.03.2019 17:00:00 -5,3 -7,6 15 8 25 14 SE 1003,8 10 0,0
13.03.2019 16:00:00 -4,9 -7,7 13 7 25 14 SSE 1004,3 10 0,0
13.03.2019 15:00:00 -5,3 -8,0 16 9 22 12 SSE 1005,0 10 0,0
13.03.2019 14:00:00 -5,5 -7,8 16 9 22 12 SSE 1005,6 10 0,0
13.03.2019 13:00:00 -6,3 -8,3 15 8 22 12 SSE 1006,2 10 0,0
13.03.2019 12:00:00 -6,6 -8,5 18 10 22 12 SSE 1006,5 10 0,0
13.03.2019 11:00:00 -7,5 -9,1 13 7 18 10 SE 1006,9 10 0,0
13.03.2019 10:00:00 -10,4 -12,1 0 0 0 0 N 1007,1 10 0,0
13.03.2019 09:00:00 -12,1 -14,0 0 0 4 2 N 1007,2 10 0,0
13.03.2019 08:00:00 -14,9 -16,7 0 0 4 2 N 1007,4 10 0,0
13.03.2019 07:00:00 -15,9 -17,7 0 0 4 2 N 1007,2 3,5 0,0
13.03.2019 06:00:00 -15,5 -17,2 0 0 0 0 N 1007,4 2,0 0,0
13.03.2019 05:00:00 -15,6 -17,3 0 0 4 2 N 1007,5 4,0 0,0
13.03.2019 04:00:00 -17,9 -19,5 0 0 0 0 N 1008,0 1,7 0,0
13.03.2019 03:00:00 -17,8 -19,7 0 0 0 0 N 1007,8 10 0,0
13.03.2019 02:00:00 -17,0 -19,0 2 1 - - NO - 10 -
13.03.2019 01:00:00 -16,5 -18,2 0 0 0 0 N 1008,2 50 0,0
13.03.2019 00:00:00 -17,6 -19,8 0 0 4 2 N 1008,6 10 0,0
12.03.2019 23:00:00 -16,2 -18,3 2 1 4 2 ONO 1008,6 10 0,0
12.03.2019 22:00:00 -15,5 -18,2 0 0 0 0 N 1008,5 10 0,0
12.03.2019 21:00:00 -14,8 -17,2 0 0 0 0 N 1008,7 10 0,0
12.03.2019 20:00:00 -13,8 -17,6 0 0 4 2 N 1008,6 10 0,0

tt = Temperatura
td = dewpoint
ff = velocità del vento
fx = gusts
dd = direzione del vento
ppp = reduced air pressure
vv = visibility
rr = precipitazioni

Stazioni seguenti

WeatherPro
AMSI
MeteoEarth